TDRS 6

Last updated on Mon Nov 03 2025 00:02:46 GMT+0000 (Coordinated Universal Time)

1 22314U 93003B 25306.02951760 -.00000286 00000+0 00000+0 0 9998 2 22314 14.1785 358.7339 0010153 202.6055 165.0698 1.00270481120133
UTC large
Height (km)
Speed (km/s)
/
Latitude / Longitude
Inclination (degrees)
Orbital Period (minutes)
Azimuth
Elevation
Range (km)
Doppler Factor

Next 0 passes for location: London (51.5072 / 0.1276)

Sorry there are no passes over London.